User: anonymous   Login
Location: Unspecified
(0.0000°N, 0.0000°E)
Time: 18:53:31
(UTC+00:00)
Language:

Tsikada - Orbit

View from above orbital plane
View from above orbital plane
View from above satellite
View from above satellite

Ground track
Ground track

The orbit data is extracted from the following two-line orbital elements,

1 23463U 95002A   19077.40317678  .00000018  00000-0  33399-5 0  9995
2 23463  82.9306 173.5708 0037540 293.5757 136.4360 13.72495381209508
Epoch (UTC): 18 March 2019 09:40:34
Eccentricity: 0.0037540
inclination: 82.9306°
perigee height: 963 km
apogee height: 1018 km
right ascension of ascending node: 173.5708°
argument of perigee: 293.5757°
revolutions per day: 13.72495381
mean anomaly at epoch: 136.4360°
orbit number at epoch: 20950

The dashed part of the orbit path shows where the satellite is in the earth's shadow,  

DLR